Airfield :
LOGIN :

Register | Disclaimer

   EN    FR    IT 

 










Legend :    VFR   Marginal VFR   IFR   Intensive IFR   Very Intensive IFR
Visi :
Ceiling :
>= 8 km
>= 3000ft
5 to 8 km
1000 to 3000 ft
1500m to 5 km
500 to 1000 ft
800 to 1500m
200 to 500 ft
< 800m
< 200 ft
Symbols :   Thunderstorms  Fog  Heavy snow  Heavy precipitations  Wind > 20 kt
SIGMETs :     Misc.  Thunderstorms  Icing  Turbulence  Mountain Waves  Volcanic Ashes







- Airport Elevation : 24 ft
- IATA code : SGD


EKSB - Sonderborg

CURRENT METAR :
  • 202220Z AUTO 12005KT 6000NDV FEW007/// SCT021/// BKN029/// 18/18 Q1008

EXPIRED METARs :
  • 202150Z AUTO 13007KT 8000NDV FEW023/// 18/18 Q1008 RERA
  • 202120Z AUTO 16004KT 100V240 9000NDV -SHRA BKN007/// BKN024/// 18/18 Q1008 RESHRA
  • 202050Z AUTO 11004KT 070V140 2500NDV +RA SCT020/// BKN040/// BKN071/// 18/18 Q1008
  • 202020Z AUTO 12006KT 5000NDV FEW015/// BKN042/// 18/18 Q1008
  • 201950Z AUTO 12006KT 8000NDV FEW036/// FEW054/// 18/18 Q1008

Expired Forecast.
No reported NOTAMs for that airfield.



MET'MAP, your aeronautical weather chart ! - Copyright ORBIFLY December 2007 - Disclaimer

ORBIFLY MET'MAP TEAM :

Programming & Development : Alexandra Zaïnal
Concept & Development : Baudouin d'Aumeries
Co-Development & Prog : Marc-Olivier Méhu
Technical & hardware support : Manuel Goepfert

Contact : metmap@orbifly.com




SOURCES & CREDITS :

   NOAA